• In Österreich
  • Länderverzeichnis
  • Für 7 Tage
  • Wassertemperatur
  • Satellitenkarten
  • Wetterkarte
  • News
  • Widgets
  • user-avatar
    Anmelden

    Stündliche Wetter Sorø

    Heute, 21 September, Freitag

    Zeit Temperatur Niederschläge Wind Luftdruck Luftfeuchtigkeit
    00:00 +17°C° 0 mm 5 m/S 752 mmHg 83%
    01:00 +17°C° 0 mm 6 m/S 751 mmHg 81%
    02:00 +17°C° 0 mm 7 m/S 750 mmHg 80%
    03:00 +17°C° 0 mm 7 m/S 750 mmHg 79%
    04:00 +17°C° 0 mm 8 m/S 749 mmHg 78%
    05:00 +17°C° 0 mm 8 m/S 748 mmHg 77%
    06:00 +17°C° 0 mm 9 m/S 747 mmHg 76%
    07:00 +17°C° 0 mm 9 m/S 746 mmHg 75%
    08:00 +19°C° 0 mm 10 m/S 746 mmHg 70%
    09:00 +21°C° 0 mm 11 m/S 745 mmHg 66%
    10:00 +22°C° 0 mm 12 m/S 744 mmHg 62%
    11:00 +20°C° 0.9 mm 13 m/S 744 mmHg 67%
    12:00 +18°C° 0.9 mm 14 m/S 744 mmHg 72%
    13:00 +17°C° 0.9 mm 15 m/S 744 mmHg 77%
    14:00 +15°C° 0.3 mm 14 m/S 745 mmHg 72%
    15:00 +14°C° 0.3 mm 14 m/S 746 mmHg 68%
    16:00 +13°C° 0.3 mm 13 m/S 747 mmHg 64%
    17:00 +12°C° 0.1 mm 13 m/S 747 mmHg 64%
    18:00 +12°C° 0.1 mm 13 m/S 747 mmHg 64%
    19:00 +10°C° 0.1 mm 13 m/S 747 mmHg 64%
    20:00 +10°C° 0.1 mm 13 m/S 747 mmHg 64%
    21:00 +10°C° 0.1 mm 13 m/S 748 mmHg 64%
    22:00 +10°C° 0.1 mm 13 m/S 748 mmHg 63%
    23:00 +10°C° 0.3 mm 12 m/S 748 mmHg 66%

    Morgen, 22 September, Samstag

    Zeit Temperatur Niederschläge Wind Luftdruck Luftfeuchtigkeit
    00:00 +10°C° 0.3 mm 12 m/S 748 mmHg 68%
    01:00 +11°C° 0.3 mm 11 m/S 748 mmHg 71%
    02:00 +9°C° 0.1 mm 11 m/S 749 mmHg 70%
    03:00 +9°C° 0.1 mm 10 m/S 750 mmHg 69%
    04:00 +9°C° 0.1 mm 10 m/S 750 mmHg 69%
    05:00 +9°C° 0 mm 10 m/S 751 mmHg 69%
    06:00 +9°C° 0 mm 10 m/S 751 mmHg 69%
    07:00 +10°C° 0 mm 9 m/S 752 mmHg 69%
    08:00 +11°C° 0.2 mm 10 m/S 752 mmHg 65%
    09:00 +12°C° 0.2 mm 10 m/S 752 mmHg 62%
    10:00 +13°C° 0.2 mm 11 m/S 753 mmHg 58%
    11:00 +13°C° 0.3 mm 11 m/S 753 mmHg 57%
    12:00 +13°C° 0.3 mm 11 m/S 753 mmHg 56%
    13:00 +13°C° 0.3 mm 12 m/S 753 mmHg 56%
    14:00 +13°C° 0.2 mm 12 m/S 753 mmHg 56%
    15:00 +13°C° 0.2 mm 12 m/S 753 mmHg 56%
    16:00 +13°C° 0.2 mm 12 m/S 753 mmHg 57%
    17:00 +12°C° 0.3 mm 12 m/S 753 mmHg 62%
    18:00 +10°C° 0.3 mm 12 m/S 753 mmHg 66%
    19:00 +10°C° 0.3 mm 12 m/S 753 mmHg 71%
    20:00 +10°C° 0.1 mm 12 m/S 754 mmHg 70%
    21:00 +9°C° 0.1 mm 11 m/S 754 mmHg 68%
    22:00 +9°C° 0.1 mm 11 m/S 754 mmHg 67%
    23:00 +9°C° 0 mm 11 m/S 755 mmHg 67%

    übermorgen, 23 September, Sonntag

    Zeit Temperatur Niederschläge Wind Luftdruck Luftfeuchtigkeit
    00:00 +9°C° 0 mm 11 m/S 755 mmHg 68%
    01:00 +9°C° 0 mm 10 m/S 755 mmHg 68%
    02:00 +9°C° 0 mm 10 m/S 755 mmHg 69%
    03:00 +8°C° 0 mm 9 m/S 756 mmHg 70%
    04:00 +8°C° 0 mm 9 m/S 756 mmHg 71%
    05:00 +9°C° 0 mm 8 m/S 756 mmHg 71%
    06:00 +9°C° 0 mm 8 m/S 756 mmHg 71%
    07:00 +9°C° 0 mm 8 m/S 756 mmHg 71%
    08:00 +10°C° 0 mm 7 m/S 756 mmHg 66%
    09:00 +11°C° 0 mm 7 m/S 756 mmHg 60%
    10:00 +12°C° 0 mm 7 m/S 756 mmHg 55%
    11:00 +12°C° 0 mm 7 m/S 756 mmHg 54%
    12:00 +14°C° 0 mm 6 m/S 756 mmHg 52%
    13:00 +14°C° 0 mm 6 m/S 756 mmHg 51%
    14:00 +14°C° 0 mm 5 m/S 755 mmHg 52%
    15:00 +13°C° 0 mm 4 m/S 755 mmHg 52%
    16:00 +13°C° 0 mm 4 m/S 754 mmHg 53%
    17:00 +12°C° 0 mm 3 m/S 754 mmHg 55%
    18:00 +13°C° 0 mm 2 m/S 753 mmHg 57%
    19:00 +12°C° 0 mm 1 m/S 753 mmHg 60%
    20:00 +12°C° 0.4 mm 2 m/S 752 mmHg 62%
    21:00 +10°C° 0.4 mm 3 m/S 751 mmHg 65%
    22:00 +10°C° 0.4 mm 3 m/S 751 mmHg 68%
    23:00 +9°C° 0.6 mm 5 m/S 750 mmHg 71%

    24 September, Montag

    Zeit Temperatur Niederschläge Wind Luftdruck Luftfeuchtigkeit
    00:00 +9°C° 0.6 mm 6 m/S 749 mmHg 74%
    01:00 +8°C° 0.6 mm 7 m/S 748 mmHg 76%
    02:00 +8°C° 0.7 mm 7 m/S 748 mmHg 76%
    03:00 +7°C° 0.7 mm 8 m/S 748 mmHg 76%
    04:00 +7°C° 0.7 mm 8 m/S 748 mmHg 77%
    05:00 +7°C° 0.2 mm 8 m/S 749 mmHg 74%
    06:00 +8°C° 0.2 mm 9 m/S 750 mmHg 72%
    07:00 +8°C° 0.2 mm 9 m/S 751 mmHg 69%
    08:00 +8°C° 0.3 mm 9 m/S 752 mmHg 65%
    09:00 +9°C° 0.3 mm 10 m/S 754 mmHg 61%
    10:00 +11°C° 0.3 mm 11 m/S 756 mmHg 56%
    11:00 +11°C° 0 mm 10 m/S 757 mmHg 51%
    12:00 +12°C° 0 mm 10 m/S 758 mmHg 46%
    13:00 +12°C° 0 mm 10 m/S 760 mmHg 41%
    14:00 +12°C° 0 mm 11 m/S 761 mmHg 43%
    15:00 +11°C° 0 mm 11 m/S 762 mmHg 44%
    16:00 +11°C° 0 mm 11 m/S 763 mmHg 46%
    17:00 +9°C° 0 mm 10 m/S 764 mmHg 48%
    18:00 +8°C° 0 mm 9 m/S 765 mmHg 50%
    19:00 +8°C° 0 mm 9 m/S 766 mmHg 52%
    20:00 +7°C° 0 mm 8 m/S 766 mmHg 54%
    21:00 +7°C° 0 mm 8 m/S 767 mmHg 55%
    22:00 +8°C° 0 mm 7 m/S 768 mmHg 57%
    23:00 +8°C° 0 mm 7 m/S 768 mmHg 58%

    25 September, Dienstag

    Zeit Temperatur Niederschläge Wind Luftdruck Luftfeuchtigkeit
    00:00 +7°C° 0 mm 8 m/S 768 mmHg 59%
    01:00 +7°C° 0 mm 8 m/S 769 mmHg 60%
    02:00 +7°C° 0 mm 8 m/S 769 mmHg 62%
    03:00 +7°C° 0 mm 8 m/S 769 mmHg 64%
    04:00 +7°C° 0 mm 8 m/S 769 mmHg 65%
    05:00 +7°C° 0 mm 9 m/S 769 mmHg 68%
    06:00 +7°C° 0 mm 9 m/S 769 mmHg 70%
    07:00 +8°C° 0 mm 9 m/S 769 mmHg 73%
    08:00 +9°C° 0.1 mm 10 m/S 769 mmHg 71%
    09:00 +11°C° 0.1 mm 11 m/S 768 mmHg 68%
    10:00 +12°C° 0.1 mm 13 m/S 768 mmHg 66%
    11:00 +12°C° 0.1 mm 13 m/S 768 mmHg 66%
    12:00 +12°C° 0.1 mm 13 m/S 768 mmHg 65%
    13:00 +13°C° 0.1 mm 13 m/S 767 mmHg 65%
    14:00 +12°C° 0.3 mm 13 m/S 767 mmHg 67%
    15:00 +12°C° 0.3 mm 13 m/S 767 mmHg 69%
    16:00 +12°C° 0.3 mm 13 m/S 767 mmHg 71%
    17:00 +12°C° 0.5 mm 13 m/S 766 mmHg 73%
    18:00 +12°C° 0.5 mm 12 m/S 766 mmHg 74%
    19:00 +12°C° 0.5 mm 12 m/S 766 mmHg 75%
    20:00 +11°C° 0.2 mm 11 m/S 767 mmHg 76%
    21:00 +11°C° 0.2 mm 10 m/S 767 mmHg 77%
    22:00 +11°C° 0.2 mm 9 m/S 767 mmHg 78%
    23:00 +11°C° 0.1 mm 9 m/S 767 mmHg 80%

    26 September, Mittwoch

    Zeit Temperatur Niederschläge Wind Luftdruck Luftfeuchtigkeit
    00:00 +10°C° 0.1 mm 8 m/S 767 mmHg 81%
    01:00 +10°C° 0.1 mm 7 m/S 767 mmHg 82%
    02:00 +10°C° 0 mm 7 m/S 767 mmHg 84%
    03:00 +10°C° 0 mm 7 m/S 768 mmHg 85%
    04:00 +9°C° 0 mm 7 m/S 768 mmHg 86%
    05:00 +10°C° 0 mm 6 m/S 768 mmHg 87%
    06:00 +10°C° 0 mm 6 m/S 768 mmHg 87%
    07:00 +10°C° 0 mm 6 m/S 768 mmHg 87%
    08:00 +11°C° 0 mm 6 m/S 768 mmHg 81%
    09:00 +13°C° 0 mm 6 m/S 768 mmHg 76%
    10:00 +14°C° 0 mm 6 m/S 768 mmHg 71%
    11:00 +14°C° 0 mm 6 m/S 768 mmHg 68%
    12:00 +14°C° 0 mm 6 m/S 768 mmHg 66%
    13:00 +15°C° 0 mm 6 m/S 768 mmHg 64%
    14:00 +15°C° 0 mm 7 m/S 768 mmHg 63%
    15:00 +15°C° 0 mm 7 m/S 767 mmHg 63%
    16:00 +15°C° 0 mm 7 m/S 767 mmHg 63%
    17:00 +14°C° 0 mm 7 m/S 767 mmHg 66%
    18:00 +14°C° 0 mm 6 m/S 767 mmHg 69%
    19:00 +13°C° 0 mm 6 m/S 767 mmHg 71%
    20:00 +11°C° 0 mm 6 m/S 767 mmHg 74%
    21:00 +11°C° 0 mm 6 m/S 766 mmHg 77%
    22:00 +10°C° 0 mm 6 m/S 766 mmHg 80%
    23:00 +10°C° 0 mm 6 m/S 766 mmHg 81%
    Mehr zeigen